This demonstration page uses our WeatherBlox Daily Observations layout. Learn more.

Left ArrowRight Arrow

Hourly Observations for December 11, 2018

Temp ( °F °C ) Dew Point ( °F °C ) Humidity (%) Winds ( mph kmh ) Pressure ( in mb ) Visibility ( mi km ) Precip ( " mm )
12:15 am 00:15 Clear with Mist and Fog 18 -8 18 -8 100 100 SW 7 11 30.27 1025 4 6 0.00 0.00
12:35 am 00:35 Clear with Mist and Fog 18 -8 17 -8.1 99 99 SW 6 9 30.27 1025 4 6 0.00 0.00
12:55 am 00:55 Clear with Mist and Fog 18 -8 17 -8.1 99 99 SW 6 9 30.27 1025 5 8 0.00 0.00
1:15 am 01:15 Clear with Mist and Fog 17 -8.2 17 -8.3 99 99 SSW 7 11 30.27 1025 5 8 0.00 0.00
1:35 am 01:35 Clear with Mist and Fog 17 -8.1 17 -8.2 99 99 SW 3 6 30.27 1025 5 8 0.00 0.00
1:55 am 01:55 Clear with Mist and Fog 17 -8.5 16 -8.7 98 98 SW 6 9 30.27 1025 4 6 0.00 0.00
2:20 am 02:20 Clear with Mist and Fog 17 -8.5 17 -8.6 99 99 SW 6 9 30.27 1025 5 8 0.00 0.00
2:35 am 02:35 Clear with Mist and Fog 17 -8.3 17 -8.5 98 98 SW 6 9 30.27 1025 5 8 0.00 0.00
2:55 am 02:55 Clear with Mist and Fog 17 -8.1 17 -8.1 100 100 SSW 6 9 30.27 1025 5 8 0.00 0.00
3:15 am 03:15 Clear with Mist and Fog 18 -8 18 -8 100 100 SW 6 9 30.27 1025 4 6 0.00 0.00
3:35 am 03:35 Clear with Mist and Fog 19 -7 19 -7 100 100 SW 8 13 30.24 1024 5 8 0.00 0.00
3:55 am 03:55 Clear with Mist and Fog 19 -7.1 19 -7.1 100 100 SW 8 13 30.24 1024 5 8 0.00 0.00
4:15 am 04:15 Clear with Mist and Fog 19 -7.1 19 -7.1 100 100 SW 7 11 30.24 1024 5 8 0.00 0.00
4:35 am 04:35 Clear with Mist and Fog 19 -7 19 -7 100 100 SW 8 13 30.24 1024 5 8 0.00 0.00
4:55 am 04:55 Clear with Mist and Fog 19 -7 19 -7 100 100 WSW 7 11 30.24 1024 5 8 0.00 0.00
5:15 am 05:15 Clear with Mist and Fog 19 -7.5 19 -7.5 100 100 SW 7 11 30.24 1024 5 8 0.00 0.00
5:35 am 05:35 Clear with Mist and Fog 19 -7.3 19 -7.3 100 100 WSW 6 9 30.24 1024 5 8 0.00 0.00
5:55 am 05:55 Clear with Mist and Fog 18 -7.7 18 -7.7 100 100 SW 5 7 30.24 1024 5 8 0.00 0.00
6:15 am 06:15 Clear with Mist and Fog 18 -7.7 18 -7.7 100 100 WSW 6 9 30.24 1024 5 8 0.00 0.00
6:35 am 06:35 Clear with Mist and Fog 18 -7.8 18 -7.9 99 99 SW 5 7 30.24 1024 5 8 0.00 0.00
6:55 am 06:55 Clear with Mist and Fog 18 -7.7 18 -7.7 100 100 SW 10 17 30.24 1024 5 8 0.00 0.00
7:15 am 07:15 Clear with Mist and Fog 20 -6.8 20 -6.8 100 100 SW 9 15 30.24 1024 5 8 0.00 0.00
7:35 am 07:35 Clear 20 -6.8 20 -6.8 100 100 SW 9 15 30.24 1024 7 11 0.00 0.00
7:55 am 07:55 Clear 21 -6 21 -6.2 99 99 SW 14 22 30.21 1023 7 11 0.00 0.00
8:15 am 08:15 Sunny with Mist and Fog 22 -5.8 20 -6.7 93 93 SW 12 19 30.21 1023 5 8 0.00 0.00
8:35 am 08:35 Sunny 22 -5.7 19 -7.2 89 89 SW 10 17 30.21 1023 7 11 0.00 0.00
8:55 am 08:55 Sunny 23 -5 19 -7 86 86 SW 9 15 30.21 1023 7 11 0.00 0.00
9:15 am 09:15 Sunny 24 -4.3 20 -6.5 85 85 SW 9 15 30.21 1023 7 11 0.00 0.00
9:35 am 09:35 Sunny 26 -3.5 21 -6.2 82 82 SW 12 19 30.21 1023 7 11 0.00 0.00
9:55 am 09:55 Sunny 28 -2.5 22 -5.7 79 79 SW 10 17 30.21 1023 7 11 0.00 0.00
10:15 am 10:15 Sunny 29 -1.9 22 -5.4 77 77 SW 10 17 30.18 1022 10 16 0.00 0.00
10:35 am 10:35 Sunny 30 -1.3 23 -4.9 77 77 SW 13 20 30.18 1022 10 16 0.00 0.00
10:55 am 10:55 Sunny 31 -0.7 23 -4.9 74 74 SW 14 22 30.18 1022 10 16 0.00 0.00
11:15 am 11:15 Sunny 31 -0.5 24 -4.5 75 75 SW 14 22 30.18 1022 10 16 0.00 0.00
11:35 am 11:35 Sunny 32 0.2 25 -3.9 74 74 SW 15 24 30.15 1021 10 16 0.00 0.00
11:55 am 11:55 Sunny 33 0.6 25 -3.9 72 72 WSW 17 28 30.15 1021 10 16 0.00 0.00
12:15 pm 12:15 Sunny 34 1.1 26 -3.6 71 71 SW 15 24 30.12 1020 10 16 0.00 0.00
12:35 pm 12:35 Sunny 34 1.3 26 -3.6 70 70 WSW 18 30 30.12 1020 10 16 0.00 0.00
12:55 pm 12:55 Sunny 35 1.6 26 -3.3 70 70 WSW 17 28 30.12 1020 10 16 0.00 0.00
1:15 pm 13:15 Sunny 36 2 26 -3.3 68 68 WSW 16 26 30.12 1020 10 16 0.00 0.00
1:35 pm 13:35 Sunny 36 2 27 -2.9 70 70 WSW 14 22 30.12 1020 10 16 0.00 0.00
1:55 pm 13:55 Sunny 36 2.2 26 -3.2 68 68 WSW 16 26 30.12 1020 10 16 0.00 0.00
2:15 pm 14:15 Sunny 37 2.5 27 -3 67 67 SW 14 22 30.12 1020 10 16 0.00 0.00
2:35 pm 14:35 Sunny 37 2.9 27 -2.7 67 67 SW 13 20 30.12 1020 10 16 0.00 0.00
2:55 pm 14:55 Sunny 38 3.1 27 -2.7 66 66 WSW 10 17 30.12 1020 10 16 0.00 0.00
3:15 pm 15:15 Sunny 38 3.4 27 -2.8 64 64 WSW 12 19 30.12 1020 10 16 0.00 0.00
3:35 pm 15:35 Sunny 38 3.5 27 -2.7 64 64 WSW 14 22 30.12 1020 10 16 0.00 0.00
3:55 pm 15:55 Sunny 38 3.6 27 -2.7 64 64 SW 14 22 30.12 1020 10 16 0.00 0.00
4:15 pm 16:15 Sunny 38 3.6 28 -2.5 65 65 WSW 10 17 30.12 1020 10 16 0.00 0.00
4:35 pm 16:35 Sunny 38 3.1 28 -2.4 68 68 SW 12 19 30.12 1020 10 16 0.00 0.00
4:55 pm 16:55 Sunny 37 2.7 28 -2.3 70 70 SW 13 20 30.12 1020 10 16 0.00 0.00
5:15 pm 17:15 Sunny 36 2 28 -2.5 72 72 SW 9 15 30.12 1020 10 16 0.00 0.00
5:35 pm 17:35 Clear 35 1.7 28 -2.5 74 74 SSW 12 19 30.12 1020 10 16 0.00 0.00
5:55 pm 17:55 Clear 35 1.7 27 -2.7 73 73 SSW 8 13 30.12 1020 10 16 0.00 0.00
6:15 pm 18:15 Clear 35 1.7 27 -2.8 72 72 SSW 12 19 30.12 1020 10 16 0.00 0.00
6:35 pm 18:35 Clear 35 1.6 27 -2.9 72 72 SW 13 20 30.12 1020 10 16 0.00 0.00
6:55 pm 18:55 Clear 34 1.3 27 -2.6 76 76 SW 9 15 30.12 1020 10 16 0.00 0.00
7:15 pm 19:15 Clear 34 1.2 27 -2.6 76 76 SW 10 17 30.12 1020 10 16 0.00 0.00
7:35 pm 19:35 Clear 34 1.2 28 -2.5 77 77 SW 12 19 30.12 1020 10 16 0.00 0.00
7:55 pm 19:55 Clear 34 1.1 28 -2.5 77 77 SW 9 15 30.12 1020 10 16 0.00 0.00
8:15 pm 20:15 Clear 34 1 27 -2.7 77 77 SSW 9 15 30.12 1020 10 16 0.00 0.00
8:35 pm 20:35 Clear 33 0.6 27 -2.7 79 79 SW 7 11 30.12 1020 10 16 0.00 0.00
8:55 pm 20:55 Clear 34 1 27 -2.6 77 77 SSW 8 13 30.12 1020 10 16 0.00 0.00
9:15 pm 21:15 Clear 34 1 27 -2.6 77 77 SW 8 13 30.12 1020 10 16 0.00 0.00
9:35 pm 21:35 Clear 34 1 28 -2.5 78 78 SW 8 13 30.12 1020 10 16 0.00 0.00
9:55 pm 21:55 Clear 34 1.1 28 -2.4 78 78 SW 8 13 30.12 1020 10 16 0.00 0.00
10:15 pm 22:15 Clear 34 1 28 -2.3 79 79 SW 8 13 30.12 1020 10 16 0.00 0.00
10:35 pm 22:35 Clear 34 1 28 -2.3 79 79 SSW 7 11 30.12 1020 10 16 0.00 0.00
10:55 pm 22:55 Clear 34 1 28 -2.5 78 78 SSW 6 9 30.12 1020 10 16 0.00 0.00
11:15 pm 23:15 Clear 33 0.8 27 -2.6 78 78 SSW 6 9 30.12 1020 10 16 0.00 0.00
11:35 pm 23:35 Clear 32 0 28 -2.3 85 85 S 5 7 30.12 1020 10 16 0.00 0.00
11:55 pm 23:55 Clear 32 0 28 -2.2 85 85 S 5 7 30.12 1020 10 16 0.00 0.00

Powered by AerisWeather